Location: Kelshall
(52.0000°N, 0.0500°W)
Time: 14:45:35
(UTC+00:00)

ARIANE 5 R/B - Pass Details

Date: 18 September 2020
Orbit: 620 x 657 km, 98.2° (Epoch: 23 October)

Event Time Altitude Azimuth Distance (km) Brightness Sun altitude
Exits shadow 19:37:43 21° 85° (E) 1,431 3.9 -14.4°
Maximum altitude 19:38:56 23° 61° (ENE) 1,327 3.9 -14.6°
Drops below altitude 10° 19:42:22 10° 8° (N) 2,004 5.4 -15.1°
Sets 19:44:54 0° 355° (N) 2,913 6.4 -15.4°
